SCP
0 -0 -0 -0 0 0 0 0 0 0 0 -0 -0 -0 -0 0 0 0 0 0 0 0 0 0 0 0 0 0 0 0 0 0 0 0 0 0 0 0 0 0 0 0 0
0 0 0 0 0 0 0 0 0 0 0 0 -0 -0 -0 0 0 0 0 0 0 0 0 0 0 0 0 0 0 0 0 0 0 0 0 0 0 0 0 0 0 0 0
0 0 0 0 0 0 0 0 0 0 0 0 0 0 0 0 0 0 0 0 0 0 0 0 0 0 0 0 0 0 0 0 0 0 0 0 0 0 0 0 0 0 0
0 0 0 0 0 0 0 0 0 0 0 0 0 0 0 0 0 0 0 0 0 0 0 0 0 -0 0 0 0 0 0 0 0 0 0 0 0 0 0 0 0 0 0
0 0 0 0 0 0 0 0 0 0 0 0 0 0 0 0 0 0 0 0 0 0 0 0 0 0 0 0 0 0 0 0 0 0 0 0 0 0 0 0 0 0 0
0 0 0 0 0 0 0 0 0 0 0 0 0 0 0 0 0 0 0 0 0 0 0 0 0 0 0 0 0 0 0 0 0 0 0 0 0 0 0 0 0 0 0
0 0 0 0 0 0 0 0 0 0 0 0 0 0 0 0 0 0 0 0 0 0 0 0 0 0 0 0 0 0 0 0 0 0 0 0 0 0 0 0 0 0 0
0 0 0 0 0 0 0 0 0 0 0 0 0 0 0 0 0 0 0 0 0 0 0 0 0 -0 0 0 0 0 0 0 0 0 0 0 0 0 0 0 0 0 0
0 0 0 0 0 0 0 0 0 0 0 0 0 0 0 0 0 0 0 0 -0 0 0 0 -0 0 0 0 0 0 0 0 0 0 0 0 0 0 0 0 0 0 0
0 0 0 0 0 0 0 0 0 0 0 0 0 0 0 0 0 0 0 -0 0 0 0 -0 0 0 0 -0 0 0 0 0 0 0 0 0 0 0 0 0 0 0 0
0 0 0 0 0 0 0 0 0 0 0 0 0 0 0 0 0 0 0 0 0 0 0 0 -0 -0 -0 -0 -0 -0 -0 0 0 0 0 0 0 0 -0 0 0 0 0
0 0 0 0 0 0 0 0 0 0 0 0 0 0 0 0 0 0 0 0 0 0 0 0 0 0 0 0 0 0 0 0 0 0 0 0 0 -0 -0 0 0 0 0
0 0 0 0 0 0 0 0 0 0 0 0 0 0 0 0 0 0 0 0 0 0 0 0 -0 0 0 0 0 0 0 0 -0 -0 -0 -0 -0 -0 -0 -0 0 0 0
0 0 0 0 0 0 0 0 0 0 0 0 0 0 0 0 0 0 0 0 0 0 0 0 0 0 0 0 0 0 0 0 -0 -0 -0 -0 -0 -0 -0 -0 0 0 0
0 0 0 0 0 0 0 0 0 0 0 0 0 0 0 0 0 0 0 0 0 0 0 0 0 0 0 0 0 0 0 -0 0 0 0 0 0 0 0 0 0 0 0
0 0 0 0 0 0 0 0 0 0 0 0 0 0 0 0 0 0 0 0 0 0 0 0 0 0 0 0 0 0 0 0 0 0 0 0 0 0 0 0 0 0 0
0 0 0 0 0 0 0 0 0 0 0 0 0 0 0 0 0 0 0 0 0 0 0 0 0 0 0 0 0 0 0 0 0 0 0 0 0 0 0 0 0 0 0
0 0 0 0 0 0 0 0 -0 0 0 0 0 0 0 0 0 0 0 0 0 0 0 0 0 0 0 0 0 0 0 0 0 0 0 0 0 0 0 0 0 0 0
0 0 0 -0 0 0 0 0 -0 0 0 0 0 0 0 0 0 0 0 0 0 0 0 0 0 0 0 0 0 0 0 0 0 0 0 0 0 0 0 0 0 0 0
0 0 0 0 0 0 0 -0 0 0 0 0 0 0 0 0 0 0 0 0 0 0 0 0 0 0 0 0 0 0 0 0 0 0 0 0 0 0 0 0 0 0 0
0 0 0 0 0 0 0 -0 0 0 0 0 0 0 0 0 0 0 0 0 0 0 0 0 0 0 0 0 0 0 0 0 0 0 0 0 0 0 0 0 0 0 0
0 0 0 0 0 0 0 -0 0 0 0 0 -0 0 0 0 0 0 0 0 0 0 0 0 0 0 0 0 0 0 0 0 0 0 0 0 0 0 0 0 0 0 0
0 0 0 0 0 0 -0 -0 0 0 0 -0 0 0 0 0 0 0 0 0 0 0 0 0 0 0 0 0 0 0 0 0 0 0 0 0 0 0 0 0 0 0 0
0 -0 -0 0 0 -0 -0 -0 0 0 0 0 0 0 0 0 0 0 0 0 0 0 0 0 0 0 0 0 0 0 0 0 0 0 0 0 0 0 0 0 0 0 0
0 0 -0 0 0 0 -0 -0 0 0 -0 -0 0 0 0 0 0 0 0 0 0 -0 0 0 0 0 0 0 0 0 0 0 0 0 0 0 0 0 0 0 0 0 0
0 0 0 -0 0 0 -0 -0 -0 0 -0 -0 0 0 0 0 0 0 0 0 0 0 0 0 0 0 0 0 0 0 0 0 0 0 0 0 0 0 0 0 0 0 0
Wind_Speed_500mb
16 13 10 0 8 7 19 20 19 25 25 26 44 46 40 32 27 21 23 24 26 22 26 32 29 31 33 28 24 29 31 27 24 22 7 5 5 13 15 22 21 15 12
11 2 6 6 8 7 12 15 22 27 32 44 50 47 41 30 27 29 26 24 26 25 28 27 28 33 28 26 23 25 28 28 21 17 8 1 6 14 24 21 17 12 12
9 3 2 3 10 6 12 23 23 27 35 48 46 44 48 42 35 30 28 24 26 26 27 30 33 30 22 23 19 18 18 19 15 15 15 5 6 18 18 19 18 14 17
8 4 9 10 6 9 12 7 20 34 44 42 44 42 39 35 30 29 26 22 22 23 27 33 32 23 28 21 16 11 11 14 10 18 15 20 9 4 8 16 17 18 17
12 5 15 4 5 6 8 19 28 33 37 45 44 40 36 33 32 34 32 24 23 25 27 26 26 21 15 15 11 10 7 7 7 7 8 11 16 10 13 12 16 19 18
11 5 6 7 5 3 13 26 37 41 44 51 41 45 42 34 36 33 29 27 22 22 18 16 14 9 8 10 9 8 7 6 10 10 8 11 18 20 16 13 11 10 10
8 14 12 6 12 18 25 35 44 34 34 38 39 46 44 40 32 31 30 25 20 15 9 7 6 9 9 14 14 8 5 4 9 12 15 13 15 15 13 10 11 8 8
11 19 14 11 14 26 35 40 28 33 35 43 42 38 38 35 31 35 30 19 14 12 19 13 10 12 15 14 17 14 10 8 11 17 16 16 16 12 7 8 12 12 5
21 14 10 14 25 29 28 29 30 32 39 51 40 33 37 44 38 30 24 18 12 21 18 18 16 18 18 27 29 25 21 14 19 22 23 16 13 10 9 7 6 5 6
22 11 10 20 25 27 24 20 27 34 38 44 38 35 30 31 33 29 24 16 22 22 19 22 18 17 14 21 23 27 27 21 18 19 14 10 10 9 7 2 3 7 12
17 10 15 22 21 19 18 23 28 33 36 42 43 40 34 34 25 25 20 19 23 17 12 15 15 14 13 15 19 22 23 23 24 21 16 15 11 9 6 6 6 8 9
15 14 20 21 23 18 17 21 30 29 38 40 39 42 38 31 32 27 24 18 13 12 12 13 14 13 7 9 10 12 17 18 21 15 9 8 9 8 7 6 4 6 10
10 15 23 20 20 22 16 22 28 34 32 38 32 36 38 37 31 28 25 21 15 13 11 12 14 18 8 8 8 7 8 10 9 11 7 7 8 9 5 5 3 9 9
12 16 18 18 17 19 20 22 28 34 35 31 35 32 30 33 36 36 32 22 17 16 16 16 15 16 13 10 9 9 7 5 6 10 10 8 7 10 12 11 9 7 7
13 13 15 18 15 17 18 22 28 33 33 33 32 31 34 36 36 37 39 31 23 17 18 18 16 15 11 10 9 9 8 7 9 15 21 21 20 17 13 12 10 5 9
10 10 13 12 11 16 15 18 24 28 28 29 31 32 27 32 37 42 46 45 33 33 31 28 24 22 18 15 10 6 3 5 16 19 25 26 25 23 23 25 25 21 18
6 6 12 8 9 14 17 18 18 23 25 28 32 36 35 32 32 41 40 43 32 27 31 32 34 36 37 35 32 29 29 26 28 27 29 28 27 24 20 19 18 17 15
7 9 7 6 10 11 16 15 16 18 21 30 29 29 32 30 31 29 32 33 32 32 31 37 38 40 42 39 38 39 35 36 33 28 25 23 19 14 15 17 17 16 15
8 11 6 6 11 15 14 14 13 16 15 25 24 28 33 32 38 34 31 31 33 37 38 37 33 32 31 30 29 30 30 29 26 23 21 19 18 18 18 17 19 19 26
11 9 12 11 12 16 16 12 16 18 18 23 23 24 24 27 33 34 27 25 29 33 33 30 27 27 28 29 26 21 24 23 21 20 18 18 19 20 22 22 24 25 26
8 7 7 11 15 13 11 13 12 18 19 24 21 20 22 23 22 17 17 23 21 22 23 23 23 21 22 22 18 20 19 20 19 15 13 14 16 20 22 14 16 21 23
2 4 3 8 12 11 9 8 14 13 13 9 10 17 20 23 28 18 10 12 10 10 13 14 14 12 10 9 6 11 11 15 14 13 10 15 12 13 8 9 17 22 18
2 5 3 6 9 4 7 6 10 10 9 11 12 13 15 21 26 30 15 8 3 9 10 5 12 5 6 6 6 4 9 11 15 10 23 15 14 12 9 12 20 14 14
3 4 1 4 7 4 7 10 12 6 7 4 9 13 17 21 21 18 19 22 23 17 8 8 10 9 9 7 6 9 6 7 12 12 11 12 12 15 17 17 19 15 18
5 4 4 4 3 6 7 9 7 6 5 7 8 14 12 18 33 33 19 14 18 30 22 13 7 6 10 10 1 2 2 6 7 6 7 10 13 17 19 14 17 23 16
13 13 8 7 6 9 6 7 3 6 2 3 13 18 12 24 34 34 16 16 11 18 28 19 18 12 14 17 14 8 8 6 5 6 9 11 14 18 19 14 14 19 18
Wind_Direction_500mb
121 102 80 356 284 309 8 6 2 2 356 348 348 351 343 322 320 309 315 294 295 305 308 311 312 320 312 302 302 299 297 302 313 301 293 228 241 210 195 187 211 253 255
112 129 251 234 312 10 11 344 341 349 345 347 349 348 338 329 317 307 316 303 300 301 297 308 316 323 323 310 304 299 294 290 305 277 277 105 167 184 175 189 215 265 280
151 176 12 299 322 270 349 353 342 334 339 345 343 345 339 336 327 323 324 329 318 306 293 299 316 320 323 320 320 308 281 280 290 248 201 182 154 151 164 173 196 222 245
141 205 343 25 16 341 346 334 331 343 346 347 341 338 341 344 338 330 327 325 313 302 288 302 312 318 309 319 322 312 266 264 267 221 207 217 208 163 177 201 214 233 225
179 24 48 46 17 319 308 338 336 347 355 349 342 349 350 341 331 323 316 301 295 291 291 314 319 318 314 317 318 308 282 249 219 209 257 234 214 240 241 219 212 219 237
210 175 129 205 356 68 341 345 345 349 341 335 355 352 349 346 340 336 334 335 323 294 304 316 327 350 10 356 331 320 315 259 204 196 203 205 191 213 212 218 217 227 243
124 124 130 60 15 358 348 340 337 353 4 360 353 347 339 334 344 350 345 339 340 348 321 338 48 48 13 4 344 322 259 181 191 178 178 185 185 183 179 185 191 167 195
122 109 92 56 13 354 349 1 22 12 11 3 356 3 9 5 358 352 350 355 350 27 43 53 57 64 54 31 46 58 90 128 135 152 148 142 138 142 161 183 182 180 179
129 116 82 25 3 358 18 22 17 17 9 4 4 6 13 16 8 14 15 25 28 58 51 56 52 67 64 77 76 80 76 94 117 131 131 127 110 118 140 163 187 218 271
126 112 33 14 16 24 29 30 22 16 7 6 12 10 8 9 15 28 38 33 72 70 53 64 62 52 74 77 77 77 78 89 113 134 132 133 121 116 118 97 295 302 309
132 91 40 24 32 35 40 34 23 11 16 17 17 20 24 21 16 30 46 41 61 64 50 50 47 63 67 80 67 72 72 87 99 115 112 104 77 47 33 340 314 307 293
121 64 27 31 42 41 44 30 23 25 21 11 18 20 27 29 34 34 33 34 47 45 53 50 42 37 34 91 97 72 72 64 64 78 52 64 52 18 357 1 332 300 304
87 41 38 49 34 31 41 29 26 21 24 23 15 20 33 35 33 30 32 39 41 45 36 37 43 30 55 109 134 115 83 58 42 20 21 8 339 330 341 334 35 98 82
81 55 50 39 35 52 42 32 27 18 24 24 25 28 20 24 25 26 28 29 41 46 34 32 25 37 88 100 104 128 119 130 76 30 14 28 49 77 74 70 108 120 36
87 48 38 38 57 54 38 39 30 23 23 25 20 22 36 42 35 32 34 39 46 45 33 28 40 53 80 108 108 111 111 87 68 69 73 74 73 79 86 89 89 78 66
79 36 34 40 67 40 29 21 33 21 22 27 32 40 40 50 49 50 43 45 58 52 53 56 58 65 77 81 90 119 127 86 86 84 82 85 76 73 76 81 77 77 72
61 64 30 94 54 30 20 27 21 21 30 50 51 54 61 57 48 33 39 41 52 51 59 65 73 70 74 72 73 77 87 88 98 92 88 83 85 86 77 73 66 50 43
80 24 40 105 25 22 14 20 25 43 64 54 53 56 48 41 32 37 34 46 62 73 72 71 71 74 72 70 76 82 85 91 95 91 83 78 72 70 62 54 40 40 24
45 29 75 63 17 5 23 21 46 74 64 50 59 50 54 43 42 54 64 71 77 81 79 76 75 69 71 69 72 83 89 89 88 79 67 63 59 54 48 48 53 35 23
53 55 73 36 24 28 38 35 75 74 54 55 62 60 54 54 69 61 62 71 70 73 73 73 73 72 69 60 56 66 75 73 64 55 43 34 37 28 18 18 33 36 27
42 54 35 21 23 23 36 48 69 90 61 84 74 57 56 46 41 42 66 73 72 69 62 71 71 67 68 69 60 45 49 54 51 52 32 18 9 2 1 11 24 20 17
104 354 291 8 14 10 87 80 100 83 76 94 73 60 35 27 25 26 34 61 64 63 66 61 58 62 57 53 53 8 32 22 29 20 9 3 360 24 32 40 19 360 352
98 358 88 11 5 70 125 133 91 86 51 93 80 58 35 13 11 23 38 22 339 359 13 17 7 14 25 317 350 355 21 42 4 43 58 60 54 52 66 16 12 22 53
151 336 111 21 38 74 115 120 126 43 76 83 45 32 15 2 2 10 22 49 47 18 328 315 308 322 312 273 262 260 301 2 70 45 42 51 46 43 39 27 26 25 33
211 259 300 295 86 106 124 125 118 105 30 51 17 12 21 348 348 340 320 344 29 36 37 28 26 47 59 75 82 195 354 41 53 44 20 11 12 4 5 17 22 23 20
261 270 261 222 176 162 155 156 101 162 288 354 348 346 3 356 358 359 327 294 326 29 35 41 45 76 83 55 49 86 45 98 43 8 40 34 25 16 12 19 20 16 19
Wind_Speed_850mb
16 13 10 0 8 7 19 20 19 25 25 26 44 46 40 32 27 21 23 24 26 22 26 32 29 31 33 28 24 29 31 27 24 22 7 5 5 13 15 22 21 15 12
11 2 6 6 8 7 12 15 22 27 32 44 50 47 41 30 27 29 26 24 26 25 28 27 28 33 28 26 23 25 28 28 21 17 8 1 6 14 24 21 17 12 12
9 3 2 3 10 6 12 23 23 27 35 48 46 44 48 42 35 30 28 24 26 26 27 30 33 30 22 23 19 18 18 19 15 15 15 5 6 18 18 19 18 14 17
8 4 9 10 6 9 12 7 20 34 44 42 44 42 39 35 30 29 26 22 22 23 27 33 32 23 28 21 16 11 11 14 10 18 15 20 9 4 8 16 17 18 17
12 5 15 4 5 6 8 19 28 33 37 45 44 40 36 33 32 34 32 24 23 25 27 26 26 21 15 15 11 10 7 7 7 7 8 11 16 10 13 12 16 19 18
11 5 6 7 5 3 13 26 37 41 44 51 41 45 42 34 36 33 29 27 22 22 18 16 14 9 8 10 9 8 7 6 10 10 8 11 18 20 16 13 11 10 10
8 14 12 6 12 18 25 35 44 34 34 38 39 46 44 40 32 31 30 25 20 15 9 7 6 9 9 14 14 8 5 4 9 12 15 13 15 15 13 10 11 8 8
11 19 14 11 14 26 35 40 28 33 35 43 42 38 38 35 31 35 30 19 14 12 19 13 10 12 15 14 17 14 10 8 11 17 16 16 16 12 7 8 12 12 5
21 14 10 14 25 29 28 29 30 32 39 51 40 33 37 44 38 30 24 18 12 21 18 18 16 18 18 27 29 25 21 14 19 22 23 16 13 10 9 7 6 5 6
22 11 10 20 25 27 24 20 27 34 38 44 38 35 30 31 33 29 24 16 22 22 19 22 18 17 14 21 23 27 27 21 18 19 14 10 10 9 7 2 3 7 12
17 10 15 22 21 19 18 23 28 33 36 42 43 40 34 34 25 25 20 19 23 17 12 15 15 14 13 15 19 22 23 23 24 21 16 15 11 9 6 6 6 8 9
15 14 20 21 23 18 17 21 30 29 38 40 39 42 38 31 32 27 24 18 13 12 12 13 14 13 7 9 10 12 17 18 21 15 9 8 9 8 7 6 4 6 10
10 15 23 20 20 22 16 22 28 34 32 38 32 36 38 37 31 28 25 21 15 13 11 12 14 18 8 8 8 7 8 10 9 11 7 7 8 9 5 5 3 9 9
12 16 18 18 17 19 20 22 28 34 35 31 35 32 30 33 36 36 32 22 17 16 16 16 15 16 13 10 9 9 7 5 6 10 10 8 7 10 12 11 9 7 7
13 13 15 18 15 17 18 22 28 33 33 33 32 31 34 36 36 37 39 31 23 17 18 18 16 15 11 10 9 9 8 7 9 15 21 21 20 17 13 12 10 5 9
10 10 13 12 11 16 15 18 24 28 28 29 31 32 27 32 37 42 46 45 33 33 31 28 24 22 18 15 10 6 3 5 16 19 25 26 25 23 23 25 25 21 18
6 6 12 8 9 14 17 18 18 23 25 28 32 36 35 32 32 41 40 43 32 27 31 32 34 36 37 35 32 29 29 26 28 27 29 28 27 24 20 19 18 17 15
7 9 7 6 10 11 16 15 16 18 21 30 29 29 32 30 31 29 32 33 32 32 31 37 38 40 42 39 38 39 35 36 33 28 25 23 19 14 15 17 17 16 15
8 11 6 6 11 15 14 14 13 16 15 25 24 28 33 32 38 34 31 31 33 37 38 37 33 32 31 30 29 30 30 29 26 23 21 19 18 18 18 17 19 19 26
11 9 12 11 12 16 16 12 16 18 18 23 23 24 24 27 33 34 27 25 29 33 33 30 27 27 28 29 26 21 24 23 21 20 18 18 19 20 22 22 24 25 26
8 7 7 11 15 13 11 13 12 18 19 24 21 20 22 23 22 17 17 23 21 22 23 23 23 21 22 22 18 20 19 20 19 15 13 14 16 20 22 14 16 21 23
2 4 3 8 12 11 9 8 14 13 13 9 10 17 20 23 28 18 10 12 10 10 13 14 14 12 10 9 6 11 11 15 14 13 10 15 12 13 8 9 17 22 18
2 5 3 6 9 4 7 6 10 10 9 11 12 13 15 21 26 30 15 8 3 9 10 5 12 5 6 6 6 4 9 11 15 10 23 15 14 12 9 12 20 14 14
3 4 1 4 7 4 7 10 12 6 7 4 9 13 17 21 21 18 19 22 23 17 8 8 10 9 9 7 6 9 6 7 12 12 11 12 12 15 17 17 19 15 18
5 4 4 4 3 6 7 9 7 6 5 7 8 14 12 18 33 33 19 14 18 30 22 13 7 6 10 10 1 2 2 6 7 6 7 10 13 17 19 14 17 23 16
13 13 8 7 6 9 6 7 3 6 2 3 13 18 12 24 34 34 16 16 11 18 28 19 18 12 14 17 14 8 8 6 5 6 9 11 14 18 19 14 14 19 18
Wind_Direction_850mb
121 102 80 356 284 309 8 6 2 2 356 348 348 351 343 322 320 309 315 294 295 305 308 311 312 320 312 302 302 299 297 302 313 301 293 228 241 210 195 187 211 253 255
112 129 251 234 312 10 11 344 341 349 345 347 349 348 338 329 317 307 316 303 300 301 297 308 316 323 323 310 304 299 294 290 305 277 277 105 167 184 175 189 215 265 280
151 176 12 299 322 270 349 353 342 334 339 345 343 345 339 336 327 323 324 329 318 306 293 299 316 320 323 320 320 308 281 280 290 248 201 182 154 151 164 173 196 222 245
141 205 343 25 16 341 346 334 331 343 346 347 341 338 341 344 338 330 327 325 313 302 288 302 312 318 309 319 322 312 266 264 267 221 207 217 208 163 177 201 214 233 225
179 24 48 46 17 319 308 338 336 347 355 349 342 349 350 341 331 323 316 301 295 291 291 314 319 318 314 317 318 308 282 249 219 209 257 234 214 240 241 219 212 219 237
210 175 129 205 356 68 341 345 345 349 341 335 355 352 349 346 340 336 334 335 323 294 304 316 327 350 10 356 331 320 315 259 204 196 203 205 191 213 212 218 217 227 243
124 124 130 60 15 358 348 340 337 353 4 360 353 347 339 334 344 350 345 339 340 348 321 338 48 48 13 4 344 322 259 181 191 178 178 185 185 183 179 185 191 167 195
122 109 92 56 13 354 349 1 22 12 11 3 356 3 9 5 358 352 350 355 350 27 43 53 57 64 54 31 46 58 90 128 135 152 148 142 138 142 161 183 182 180 179
129 116 82 25 3 358 18 22 17 17 9 4 4 6 13 16 8 14 15 25 28 58 51 56 52 67 64 77 76 80 76 94 117 131 131 127 110 118 140 163 187 218 271
126 112 33 14 16 24 29 30 22 16 7 6 12 10 8 9 15 28 38 33 72 70 53 64 62 52 74 77 77 77 78 89 113 134 132 133 121 116 118 97 295 302 309
132 91 40 24 32 35 40 34 23 11 16 17 17 20 24 21 16 30 46 41 61 64 50 50 47 63 67 80 67 72 72 87 99 115 112 104 77 47 33 340 314 307 293
121 64 27 31 42 41 44 30 23 25 21 11 18 20 27 29 34 34 33 34 47 45 53 50 42 37 34 91 97 72 72 64 64 78 52 64 52 18 357 1 332 300 304
87 41 38 49 34 31 41 29 26 21 24 23 15 20 33 35 33 30 32 39 41 45 36 37 43 30 55 109 134 115 83 58 42 20 21 8 339 330 341 334 35 98 82
81 55 50 39 35 52 42 32 27 18 24 24 25 28 20 24 25 26 28 29 41 46 34 32 25 37 88 100 104 128 119 130 76 30 14 28 49 77 74 70 108 120 36
87 48 38 38 57 54 38 39 30 23 23 25 20 22 36 42 35 32 34 39 46 45 33 28 40 53 80 108 108 111 111 87 68 69 73 74 73 79 86 89 89 78 66
79 36 34 40 67 40 29 21 33 21 22 27 32 40 40 50 49 50 43 45 58 52 53 56 58 65 77 81 90 119 127 86 86 84 82 85 76 73 76 81 77 77 72
61 64 30 94 54 30 20 27 21 21 30 50 51 54 61 57 48 33 39 41 52 51 59 65 73 70 74 72 73 77 87 88 98 92 88 83 85 86 77 73 66 50 43
80 24 40 105 25 22 14 20 25 43 64 54 53 56 48 41 32 37 34 46 62 73 72 71 71 74 72 70 76 82 85 91 95 91 83 78 72 70 62 54 40 40 24
45 29 75 63 17 5 23 21 46 74 64 50 59 50 54 43 42 54 64 71 77 81 79 76 75 69 71 69 72 83 89 89 88 79 67 63 59 54 48 48 53 35 23
53 55 73 36 24 28 38 35 75 74 54 55 62 60 54 54 69 61 62 71 70 73 73 73 73 72 69 60 56 66 75 73 64 55 43 34 37 28 18 18 33 36 27
42 54 35 21 23 23 36 48 69 90 61 84 74 57 56 46 41 42 66 73 72 69 62 71 71 67 68 69 60 45 49 54 51 52 32 18 9 2 1 11 24 20 17
104 354 291 8 14 10 87 80 100 83 76 94 73 60 35 27 25 26 34 61 64 63 66 61 58 62 57 53 53 8 32 22 29 20 9 3 360 24 32 40 19 360 352
98 358 88 11 5 70 125 133 91 86 51 93 80 58 35 13 11 23 38 22 339 359 13 17 7 14 25 317 350 355 21 42 4 43 58 60 54 52 66 16 12 22 53
151 336 111 21 38 74 115 120 126 43 76 83 45 32 15 2 2 10 22 49 47 18 328 315 308 322 312 273 262 260 301 2 70 45 42 51 46 43 39 27 26 25 33
211 259 300 295 86 106 124 125 118 105 30 51 17 12 21 348 348 340 320 344 29 36 37 28 26 47 59 75 82 195 354 41 53 44 20 11 12 4 5 17 22 23 20
261 270 261 222 176 162 155 156 101 162 288 354 348 346 3 356 358 359 327 294 326 29 35 41 45 76 83 55 49 86 45 98 43 8 40 34 25 16 12 19 20 16 19